TimeEST,TemperatureF,Dew PointF,Humidity,Sea Level PressureIn,VisibilityMPH,Wind Direction,Wind SpeedMPH,Gust SpeedMPH,PrecipitationIn,Events,Conditions,WindDirDegrees,DateUTC
12:53 AM,-9999,-9999,N/A,30.10,10.0,ENE,10.4,-,N/A,,Clear,60,2012-11-18 05:53:00
2:53 AM,-9999,-9999,N/A,30.08,10.0,NNE,10.4,-,N/A,,Clear,30,2012-11-18 07:53:00
3:53 AM,-9999,-9999,N/A,30.09,10.0,NE,8.1,-,N/A,,Partly Cloudy,40,2012-11-18 08:53:00
4:53 AM,-9999,-9999,N/A,30.09,10.0,NE,12.7,-,N/A,,Mostly Cloudy,40,2012-11-18 09:53:00
5:50 AM,-9999,-9999,N/A,30.08,10.0,NNE,10.4,-,N/A,,Scattered Clouds,30,2012-11-18 10:50:00
5:53 AM,-9999,-9999,N/A,30.09,10.0,NNE,9.2,-,N/A,,Scattered Clouds,20,2012-11-18 10:53:00
6:02 AM,-9999,-9999,N/A,30.09,10.0,NNE,9.2,-,N/A,,Mostly Cloudy,30,2012-11-18 11:02:00
6:40 AM,-9999,-9999,N/A,30.10,10.0,NE,10.4,-,N/A,,Scattered Clouds,40,2012-11-18 11:40:00
6:53 AM,-9999,-9999,N/A,30.11,10.0,NNE,9.2,-,N/A,,Partly Cloudy,30,2012-11-18 11:53:00
7:37 AM,-9999,-9999,N/A,30.11,10.0,NNE,13.8,-,N/A,,Mostly Cloudy,30,2012-11-18 12:37:00
7:53 AM,-9999,-9999,N/A,30.12,10.0,NNE,15.0,-,N/A,,Overcast,30,2012-11-18 12:53:00
8:53 AM,-9999,-9999,N/A,30.13,10.0,NE,15.0,-,N/A,,Overcast,50,2012-11-18 13:53:00
9:36 AM,-9999,-9999,N/A,30.14,10.0,NE,12.7,-,N/A,,Mostly Cloudy,50,2012-11-18 14:36:00
9:53 AM,-9999,-9999,N/A,30.15,10.0,NE,16.1,-,N/A,,Mostly Cloudy,50,2012-11-18 14:53:00
10:24 AM,-9999,-9999,N/A,30.13,10.0,NE,11.5,-,N/A,,Scattered Clouds,50,2012-11-18 15:24:00
10:53 AM,-9999,-9999,N/A,30.15,10.0,NE,15.0,-,N/A,,Partly Cloudy,40,2012-11-18 15:53:00
11:53 AM,-9999,-9999,N/A,30.13,10.0,NE,12.7,24.2,N/A,,Partly Cloudy,50,2012-11-18 16:53:00
12:53 PM,-9999,-9999,N/A,30.10,10.0,NE,16.1,-,N/A,,Partly Cloudy,50,2012-11-18 17:53:00
1:53 PM,-9999,-9999,N/A,30.09,10.0,ENE,13.8,-,N/A,,Clear,60,2012-11-18 18:53:00
2:53 PM,73.4,60.8,65,30.08,10.0,NE,12.7,18.4,N/A,,Clear,40,2012-11-18 19:53:00
3:53 PM,73.4,60.8,65,30.09,10.0,NNE,12.7,-,N/A,,Clear,30,2012-11-18 20:53:00
4:53 PM,75.2,60.8,61,30.09,10.0,NE,11.5,-,N/A,,Partly Cloudy,40,2012-11-18 21:53:00
5:53 PM,73.4,60.8,65,30.10,10.0,NNE,9.2,-,N/A,,Clear,30,2012-11-18 22:53:00
6:53 PM,69.8,59.0,68,30.12,10.0,NNE,6.9,-,N/A,,Clear,30,2012-11-18 23:53:00
7:53 PM,68.0,59.0,73,30.14,10.0,NE,6.9,-,N/A,,Clear,40,2012-11-19 00:53:00
8:53 PM,-9999,-9999,N/A,30.15,10.0,NE,11.5,-,N/A,,Clear,50,2012-11-19 01:53:00
9:53 PM,-9999,-9999,N/A,30.15,10.0,NE,8.1,-,N/A,,Clear,40,2012-11-19 02:53:00
10:53 PM,-9999,-9999,N/A,30.16,10.0,NE,9.2,-,N/A,,Clear,50,2012-11-19 03:53:00
11:53 PM,-9999,-9999,N/A,30.15,10.0,NE,11.5,-,N/A,,Clear,50,2012-11-19 04:53:00